FLOCK 4BE-32 (60497 NORAD) Tracking and Keplerian Element Data

This shows tracking and keplerian element data for the satellite.

Feedback or suggestion? Click here.




ElementValue
Catalog60497
NameFLOCK 4BE-32
Epoch Orbit864
Epoch Day286.7568043
Epoch Year2024
RAAN1.4113
Inclination97.4336
Eccentricity0.0004425
Argument of Perigee284.8852
Mean Anonmoly75.1893
Mean Motion15.19920955
Decay Rate0.0002138
L11 60497U 24149AF 24286.75680430 .00021380 00000+0 99579-3 0 9996
L22 60497 97.4336 1.4113 0004425 284.8852 75.1893 15.19920955 8649



Live tracking and technical data element details for FLOCK 4BE-32 (NORAD 60497). FLOCK 4BE-32 can be tracked NOW for your location showing map with azimuth and elevation plus other details from your city location.







IsCatalogInMostPopularTable: catalog: 60497, numindb: 6
Update: records affected: 1



GetName: 60497 FLOCK 4BE-32

Hit Count: updated at: Tue, 03 Dec 2024 03:18:14 GMT